This demonstration page uses our WeatherBlox Daily Observations layout. Learn more.

Left ArrowRight Arrow

Hourly Observations for May 29, 2017

Temp ( °F °C ) Dew Point ( °F °C ) Humidity (%) Winds ( mph kmh ) Pressure ( in mb ) Visibility ( mi km ) Precip ( " mm )
12:53 am 00:53 Clear 44 6.7 32 0 63 63 SE 5 7 30.21 1023 10 16 0.00 0.00
1:53 am 01:53 Clear 43 6.1 31 -0.6 63 63 N 5 7 30.22 1023 10 16 0.00 0.00
2:53 am 02:53 Clear 42 5.6 33 0.6 71 71 ESE 6 9 30.23 1024 10 16 0.00 0.00
3:53 am 03:53 Clear 39 3.9 30 -1.1 70 70 Calm 30.24 1024 10 16 0.00 0.00
4:53 am 04:53 Clear 33 0.6 29 -1.7 85 85 SSE 6 9 30.25 1024 10 16 0.00 0.00
5:53 am 05:53 Mostly Sunny 38 3.3 33 0.6 83 83 Calm 30.24 1024 10 16 0.00 0.00
6:53 am 06:53 Partly Cloudy 44 6.7 33 0.6 65 65 Calm 30.23 1024 10 16 0.00 0.00
7:53 am 07:53 Partly Cloudy 50 10 33 0.6 52 52 E 5 7 30.23 1024 10 16 0.00 0.00
8:53 am 08:53 Sunny 55 12.8 35 1.7 47 47 VRB 3 6 30.23 1024 10 16 0.00 0.00
9:53 am 09:53 Sunny 62 16.7 34 1.1 35 35 E 5 7 30.22 1023 10 16 0.00 0.00
10:53 am 10:53 Sunny 65 18.3 31 -0.6 28 28 ENE 3 6 30.20 1023 10 16 0.00 0.00
11:53 am 11:53 Sunny 68 20 29 -1.7 23 23 VRB 3 6 30.19 1022 10 16 0.00 0.00
12:53 pm 12:53 Sunny 71 21.7 31 -0.6 23 23 ENE 5 7 30.18 1022 10 16 0.00 0.00
1:53 pm 13:53 Sunny 71 21.7 30 -1.1 22 22 VRB 5 7 30.17 1022 10 16 0.00 0.00
2:53 pm 14:53 Sunny 74 23.3 33 0.6 22 22 E 8 13 30.14 1021 10 16 0.00 0.00
3:53 pm 15:53 Sunny 73 22.8 33 0.6 23 23 SSE 6 9 30.13 1020 10 16 0.00 0.00
4:53 pm 16:53 Sunny 74 23.3 34 1.1 23 23 SE 7 11 30.12 1020 10 16 0.00 0.00
5:53 pm 17:53 Sunny 74 23.3 34 1.1 23 23 ESE 6 9 30.10 1019 10 16 0.00 0.00
6:53 pm 18:53 Sunny 73 22.8 34 1.1 24 24 S 5 7 30.08 1019 10 16 0.00 0.00
7:53 pm 19:53 Sunny 72 22.2 35 1.7 26 26 SE 6 9 30.06 1018 10 16 0.00 0.00
8:53 pm 20:53 Sunny 63 17.2 43 6.1 48 48 S 6 9 30.06 1018 10 16 0.00 0.00
9:53 pm 21:53 Clear 60 15.6 39 3.9 46 46 Calm 30.07 1018 10 16 0.00 0.00
10:53 pm 22:53 Clear 60 15.6 33 0.6 36 36 ENE 12 19 30.09 1019 10 16 0.00 0.00
11:53 pm 23:53 Clear 55 12.8 34 1.1 45 45 E 12 19 30.09 1019 10 16 0.00 0.00

Powered by AerisWeather